YO8RBY-13 Weather Reports


time (UTC)temp
C
wind
direction
speed
KPH
gust
KPH
rain 1hr
cm
rain 24hr
cm
rain mn
cm
humidity
%
barometer
mb
20200218204056 7 315 8.0 8.0 0.00 0.00 0.00 70 978.7
20200218203555 7 315 8.0 8.0 0.00 0.00 0.00 69 978.7
20200218203054 7 315 8.0 8.0 0.00 0.00 0.00 69 978.7
20200218202553 7 315 8.0 8.0 0.00 0.00 0.00 69 978.7
20200218202052 7 315 8.0 8.0 0.00 0.00 0.00 68 978.7
20200218201551 8 315 8.0 8.0 0.00 0.00 0.00 68 978.7
20200218201050 8 315 8.0 8.0 0.00 0.00 0.00 69 978.7
20200218200549 8 315 8.0 8.0 0.00 0.00 0.00 69 978.7
20200218200047 8 315 8.0 8.0 0.00 0.00 0.00 69 978.7
20200218195546 8 315 8.0 8.0 0.00 0.00 0.00 69 978.3
20200218195045 8 315 8.0 8.0 0.00 0.00 0.00 69 978.7
20200218194544 8 315 8.0 8.0 0.00 0.00 0.00 69 978.3
20200218194042 8 315 8.0 8.0 0.00 0.00 0.00 69 978.7
20200218193541 8 315 8.0 8.0 0.00 0.00 0.00 68 978.3
20200218193040 8 315 8.0 8.0 0.00 0.00 0.00 68 978.3
20200218192539 8 315 8.0 8.0 0.00 0.00 0.00 68 978.3
20200218192038 8 315 8.0 8.0 0.00 0.00 0.00 68 978.3
20200218191537 8 315 8.0 8.0 0.00 0.00 0.00 68 978.3
20200218191036 8 315 8.0 8.0 0.00 0.00 0.00 68 978.3
20200218190534 8 315 8.0 8.0 0.00 0.00 0.00 67 978.3
20200218190033 8 315 8.0 8.0 0.00 0.00 0.00 67 978.3
20200218185532 8 315 8.0 8.0 0.00 0.00 0.00 67 978.3
20200218185030 8 315 8.0 9.7 0.00 0.00 0.00 67 978.3
20200218184529 8 315 8.0 9.7 0.00 0.00 0.00 67 978.0
20200218184028 8 315 8.0 9.7 0.00 0.00 0.00 67 978.0
20200218183527 8 315 8.0 8.0 0.00 0.00 0.00 67 978.3
20200218183027 8 315 8.0 8.0 0.00 0.00 0.00 67 978.0
20200218182525 8 315 8.0 8.0 0.00 0.00 0.00 67 978.0
20200218182024 8 315 8.0 12.9 0.00 0.00 0.00 67 978.0
20200218181523 8 315 8.0 12.9 0.00 0.00 0.00 67 978.0
20200218181021 8 315 8.0 8.0 0.00 0.00 0.00 67 978.0
20200218180520 8 315 8.0 8.0 0.00 0.00 0.00 68 978.0
20200218180019 8 315 8.0 9.7 0.00 0.00 0.00 68 978.0
20200218175518 8 315 8.0 9.7 0.00 0.00 0.00 68 977.7
20200218175017 8 315 8.0 9.7 0.00 0.00 0.00 68 977.7
20200218174515 8 315 8.0 9.7 0.00 0.00 0.00 68 977.7
20200218174014 8 315 8.0 8.0 0.00 0.00 0.00 68 977.7
20200218173307 8 315 8.0 8.0 0.00 0.00 0.00 69 977.7
20200218172806 8 315 8.0 8.0 0.00 0.00 0.00 69 977.7
20200218171857 8 315 8.0 8.0 0.00 0.00 0.00 69 977.3
20200218171355 8 315 8.0 8.0 0.00 0.00 0.00 69 977.3
20200218170854 8 315 8.0 8.0 0.00 0.00 0.00 69 977.3
20200218170354 8 315 8.0 8.0 0.00 0.00 0.00 69 977.3
20200218165853 8 315 8.0 8.0 0.00 0.00 0.00 69 977.0
20200218165351 8 315 8.0 8.0 0.00 0.00 0.00 69 977.0
20200218164850 8 315 8.0 8.0 0.00 0.00 0.00 70 977.3
20200218164349 8 315 8.0 8.0 0.00 0.00 0.00 70 977.3
20200218163848 8 315 8.0 8.0 0.00 0.00 0.00 70 977.3
20200218163347 8 315 8.0 8.0 0.00 0.00 0.00 69 977.3
20200218162846 8 315 8.0 8.0 0.00 0.00 0.00 70 977.3
20200218162345 8 315 8.0 8.0 0.00 0.00 0.00 70 977.3
20200218161843 8 315 8.0 8.0 0.00 0.00 0.00 70 977.0
20200218161342 8 315 8.0 8.0 0.00 0.00 0.00 70 977.0
20200218160840 8 315 8.0 8.0 0.00 0.00 0.00 70 977.0
20200218160340 8 315 8.0 8.0 0.00 0.00 0.00 69 977.0
20200218155807 8 315 8.0 8.0 0.00 0.00 0.00 69 977.0
20200218155306 8 315 8.0 8.0 0.00 0.00 0.00 69 977.0
20200218154122 8 315 8.0 11.3 0.00 0.00 0.00 69 976.6
20200218153551 8 315 8.0 11.3 0.00 0.00 0.00 69 976.6
20200218153050 8 315 8.0 11.3 0.00 0.00 0.00 69 976.6
20200218152548 8 315 8.0 9.7 0.00 0.00 0.00 69 976.6
20200218152017 8 315 8.0 11.3 0.00 0.00 0.00 69 976.6
20200218151515 9 315 8.0 11.3 0.00 0.00 0.00 68 976.6
20200218151014 9 315 8.0 11.3 0.00 0.00 0.00 68 976.6
20200218150513 9 315 8.0 11.3 0.00 0.00 0.00 67 976.6
20200218150011 9 315 8.0 14.5 0.00 0.00 0.00 67 976.3
20200218145510 9 315 8.0 14.5 0.00 0.00 0.00 66 976.3
20200218145010 9 315 8.0 14.5 0.00 0.00 0.00 66 976.3
20200218144509 9 315 8.0 14.5 0.00 0.00 0.00 66 976.6
20200218144008 10 315 8.0 11.3 0.00 0.00 0.00 65 976.6
20200218143506 10 315 8.0 16.1 0.00 0.00 0.00 64 976.6
20200218143006 10 315 8.0 16.1 0.00 0.00 0.00 64 976.3
20200218142505 10 315 8.0 16.1 0.00 0.00 0.00 63 976.3
20200218142005 10 315 8.0 14.5 0.00 0.00 0.00 63 976.3
20200218070642 5 315 8.0 8.0 0.00 0.00 0.00 59 975.3
20200218070141 5 315 8.0 8.0 0.00 0.00 0.00 60 975.3
20200218065640 5 315 8.0 8.0 0.00 0.00 0.00 60 975.3
20200218065138 5 315 8.0 8.0 0.00 0.00 0.00 60 975.3
20200218064637 5 315 8.0 8.0 0.00 0.00 0.00 60 975.3
20200218064136 5 315 8.0 8.0 0.00 0.00 0.00 59 974.9
20200218063635 5 315 8.0 8.0 0.00 0.00 0.00 59 975.3
20200218063134 5 315 8.0 8.0 0.00 0.00 0.00 59 975.3
20200218062633 5 315 8.0 8.0 0.00 0.00 0.00 60 974.9
20200218062132 5 315 8.0 8.0 0.00 0.00 0.00 59 974.9
20200218061631 5 315 8.0 8.0 0.00 0.00 0.00 59 974.9
20200218061130 5 315 8.0 8.0 0.00 0.00 0.00 58 974.9
20200218060630 5 315 8.0 8.0 0.00 0.00 0.00 58 974.9